Location: Katowice
(50.2611°N, 19.0242°E)
Time: 12:13:45
(UTC+02:00)

Explorer 7 - Pass Details

Date: 31 August 2019
Orbit: 485 x 680 km, 50.3° (Epoch: 16 September)

Event Time Altitude Azimuth Distance (km) Brightness Sun altitude
Rises 08:51:53 0° 255° (WSW) 3,029 10.2 26.8°
Reaches altitude 10° 08:54:17 10° 254° (WSW) 2,109 9.4 27.1°
Maximum altitude 08:59:10 82° 169° (S) 675 7.8 27.8°
Drops below altitude 10° 09:03:54 10° 82° (E) 2,038 10.8 28.5°
Sets 09:06:11 0° 81° (E) 2,920 11.4 28.9°
